Minneapolis Crystal, MN

3:19 AM CDT on March 24, 2017 (GMT -0500)
Crystal

Weather History for KMIC - December, 2013

Change the Weather History Date:

Thursday, December 19, 2013

  Actual Average Record
Temperature  
Mean Temperature 20 °F -  
Max Temperature 24 °F 24 °F 41 °F (2006)
Min Temperature 15 °F 10 °F -9 °F (2004)
Degree Days  
Heating Degree Days 46    
Moisture  
Dew Point 10 °F    
Average Humidity 72    
Maximum Humidity 84    
Minimum Humidity 62    
Precipitation  
Precipitation 0.00 in - - ()
Sea Level Pressure  
Sea Level Pressure 30.03 in    
Wind  
Wind Speed 9 mph (NNE)    
Max Wind Speed 13 mph    
Max Gust Speed 21 mph    
Visibility 8 miles    
Events Snow    
Averages and records for this station are not official NWS values.
T = Trace of Precipitation, MM = Missing Value Source: NWS Daily Summary

Daily Weather History Graph

Daily Weather History Graph

Search for Another Location

Airport or City:

Trip Planner

Search our weather history database for the weather conditions in past years. The results will help you decide how hot, cold, wet, or windy it might be!

Date:

Astronomy

Dec. 19, 2013 Rise Set
Actual Time 7:47 AM CST 4:33 PM CST
Civil Twilight 7:13 AM CST 5:07 PM CST
Nautical Twilight 6:36 AM CST 5:44 PM CST
Astronomical Twilight 6:00 AM CST 6:20 PM CST
Moon 7:05 PM CST (12/19) 9:01 AM CST (12/19)
Length of Visible Light 9h 53m
Length of Day
8h 45m
Waning Gibbous, 95% of the Moon is Illuminated
Dec 19
Waning Gibbous
Dec 25
Last Quarter
Jan 1
New
Jan 7
First Quarter
Jan 15
Full

Hourly Weather History & Observations

Time (CST) Temp. Windchill Dew Point Humidity Pressure Visibility Wind Dir Wind Speed Gust Speed Precip Events Conditions
12:53 AM 24.1 °F 15.2 °F 18.0 °F 77% 29.84 in 10.0 mi NNW 8.1 mph - N/A   Clear
1:53 AM 23.0 °F 13.9 °F 17.1 °F 78% 29.87 in 10.0 mi NNW 8.1 mph - N/A   Clear
2:53 AM 21.9 °F 17.2 °F 15.1 °F 75% 29.91 in 10.0 mi North 3.5 mph - N/A   Clear
3:53 AM 21.0 °F 10.6 °F 12.9 °F 71% 29.93 in 10.0 mi North 9.2 mph - N/A   Clear
4:53 AM 19.9 °F 9.3 °F 10.9 °F 68% 29.96 in 10.0 mi North 9.2 mph - N/A   Clear
5:53 AM 18.0 °F 12.7 °F 10.9 °F 74% 30.01 in 10.0 mi North 3.5 mph - N/A   Scattered Clouds
6:03 AM 17.6 °F 9.3 °F 10.4 °F 73% 29.96 in 10.0 mi North 5.8 mph - N/A   Mostly Cloudy
6:53 AM 18.0 °F 6.1 °F 10.9 °F 74% 30.03 in 10.0 mi North 10.4 mph - N/A   Overcast
7:53 AM 17.1 °F 5.0 °F 10.0 °F 74% 30.04 in 10.0 mi NNE 10.4 mph - N/A   Overcast
8:53 AM 16.0 °F 4.4 °F 9.0 °F 74% 30.06 in 10.0 mi NNE 9.2 mph - N/A   Overcast
9:53 AM 16.0 °F 2.9 °F 8.1 °F 71% 30.09 in 10.0 mi NNE 11.5 mph 17.3 mph N/A   Scattered Clouds
10:53 AM 15.1 °F 2.5 °F 6.1 °F 68% 30.12 in 10.0 mi NE 10.4 mph - N/A   Clear
11:53 AM 16.0 °F 3.6 °F 6.1 °F 65% 30.10 in 10.0 mi NNE 10.4 mph - N/A   Clear
12:53 PM 17.1 °F 6.6 °F 6.1 °F 62% 30.08 in 10.0 mi NNE 8.1 mph - N/A   Clear
1:53 PM 16.0 °F 5.3 °F 6.1 °F 65% 30.06 in 10.0 mi NNE 8.1 mph - N/A   Clear
2:53 PM 16.0 °F 2.9 °F 6.1 °F 65% 30.06 in 10.0 mi NNE 11.5 mph - N/A   Overcast
3:53 PM 16.0 °F 2.3 °F 6.1 °F 65% 30.06 in 10.0 mi NNE 12.7 mph - N/A   Overcast
4:53 PM 16.0 °F 4.4 °F 6.1 °F 65% 30.06 in 10.0 mi NNE 9.2 mph 20.7 mph N/A   Overcast
5:53 PM 16.0 °F 4.4 °F 7.0 °F 68% 30.08 in 10.0 mi NE 9.2 mph 18.4 mph N/A   Overcast
6:53 PM 17.1 °F 3.6 °F 8.1 °F 68% 30.07 in 10.0 mi NE 12.7 mph 19.6 mph N/A   Overcast
7:53 PM 16.0 °F 4.4 °F 8.1 °F 71% 30.09 in 10.0 mi North 9.2 mph - N/A   Overcast
8:53 PM 16.0 °F 2.9 °F 9.0 °F 74% 30.08 in 9.0 mi NNE 11.5 mph - 0.00 in Snow Light Snow
9:13 PM 15.8 °F 3.4 °F 10.4 °F 79% 30.03 in 2.0 mi NNE 10.4 mph - 0.00 in Snow Light Snow
9:20 PM 15.8 °F 2.7 °F 10.4 °F 79% 30.03 in 1.5 mi NNE 11.5 mph - 0.00 in Snow Light Snow
9:53 PM 16.0 °F 5.3 °F 10.9 °F 81% 30.07 in 1.2 mi NNE 8.1 mph 17.3 mph 0.00 in Snow Light Snow
10:34 PM 15.8 °F 2.7 °F 10.4 °F 79% 30.01 in 1.2 mi NNE 11.5 mph - 0.00 in Snow Light Snow
10:53 PM 16.0 °F 3.6 °F 12.0 °F 84% 30.06 in 1.2 mi NNE 10.4 mph - 0.00 in Snow Light Snow
11:53 PM 16.0 °F 6.3 °F 10.9 °F 81% 30.07 in 1.8 mi NNE 6.9 mph - 0.00 in Snow Light Snow